FREGAT R/B, 43235

Orbit data source: Space-Track

FREGAT R/B, 43235 is space debris originally from a launch on Fri, 09 Mar 2018 UTC launched from the French Guiana (FRGUI). Debris objects in space refer to the collection of defunct objects orbiting the Earth. Examples of debris include non-operational satellites, rocket bodies, and fragments generated from explosions, collisions, or faulty payload assembly.

Loading next visibility...
Identifier
43235, 2018-024E
Orbit
Active
Last TLE update
1 day ago
Origin
Manufacturer
Lavochkin
Mission
Spacecraft
Bus & Motor
FREGAT, Unknown motor
Mass
1,050 kg wet, 1,050 kg dry
Launch date (UTC)
2018-03-09 (7 years ago)
Launch vehicle
Unknown
Launch site
French Guiana (FRGUI)
Object type
Payload
Rocket body
Debris
Shape & HBR
Irr, 3.3 m
Radar Cross Section
11.055 m², Large (>1 m²)

Expand to show TLE details & history

TLE from 1 day ago
0 FREGAT R/B
1 43235U 18024E   25181.32406782 -.00000022  00000-0  00000-0 0  9996
2 43235   0.0925  40.7551 0009278 150.6188 168.6022  5.21348196139212
Epoch: 2025-06-30T07:46Z
TLE epoch observation values (Epoch: 2025-06-30T07:46:39.459Z)
Latitude
-0.06202°
Longitude
-35.29997°
Altitude
7,682.222 km
Speed
5.323 km/s
True Right ascension
23h 59m 59s
True Declination
0° 03' 43"
Sunlit
Object was in daylight at epoch
Visualization orbit readout
Latitude
0.0825°
Longitude
125.3566°
Altitude
7,658.315 km
Speed
5.332 km/s
Apparent Right ascension
10h 08m 41s
Apparent Declination
-12° 27' 58"
Sunlit
Object is in daylight
Visualization observer readout
Local Sidereal Time
20:28:41
Azimuth
314.27° NW
Elevation
-54.81°
Doppler factor
1
Orbital elements
Apogee altitude
7,687.191 km
Perigee altitude
7,661.115 km
Semi-major axis
14,052.29 km
Eccentricity
0.00093
Inclination
0.0925°
RAAN
40.7551°
Arg. of periapsis
150.6188°
True anomaly
Unknown
Mean anomaly
168.6022°
Eccentric anomaly
Unknown
Mean motion
1.30293 °/min
Orbital period
276.3 mins
BSTAR
0
Loading maneuver chart data...
Loading SW <> Apogee altitude chart data...
Loading historical data...
Loading historical data...
Loading historical data...
Loading historical data...
Loading historical data...
Loading historical data...
Loading historical data...
Other satellites on launch #24 in the year 2018 (2018-03-09 UTC)

FREGAT R/B Visibility forecast

Observer location: undefined°, undefined°

Span
Click to sort rows by Start time (UTC) header in descending order
Start Az.
Max El. time (UTC)
Max El. Az.
Max El.
End time (UTC)
End Az.
73 mins2025-07-01 10:33:30.640Z230.462° WSW2025-07-01 11:09:30.640Z180.04° SSW23.649°2025-07-01 11:46:30.640Z128.508° SE
72 mins2025-07-01 16:16:30.640Z229.388° WSW2025-07-01 16:51:30.640Z179.998° S23.765°2025-07-01 17:28:30.640Z128.329° SE
72 mins2025-07-01 21:57:30.640Z230.471° WSW2025-07-01 22:33:30.640Z179.703° S23.774°2025-07-01 23:09:30.640Z129.146° SE
72 mins2025-07-02 03:39:30.640Z230.157° WSW2025-07-02 04:14:30.640Z180.862° SSW23.657°2025-07-02 04:51:30.640Z128.975° SE
|